RH
5 5 5 6 8 8 10 13 14 17 20 21 23 30 32 35 39 43 45 61 71 76 99 87 58 56 43 41 46 55 49 70 51 51 33 27 21 18
6 6 6 6 7 9 10 11 12 15 19 21 20 19 20 28 31 39 42 51 61 85 90 100 96 71 75 66 56 47 56 49 59 39 29 27 22 20
10 9 8 8 8 9 10 11 12 13 14 17 17 20 22 25 23 26 36 41 48 60 59 65 63 58 60 70 75 64 53 62 61 44 35 26 32 32
24 16 12 12 14 13 11 11 11 11 12 12 13 17 26 33 34 44 33 41 53 49 47 45 67 80 93 100 98 82 64 73 68 50 43 51 54 36
24 25 25 26 21 18 16 16 14 13 14 16 17 18 18 22 28 32 33 38 30 40 66 81 79 100 99 91 94 100 83 61 55 61 63 80 85 64
24 22 22 23 28 31 30 29 26 21 20 19 19 21 23 26 28 29 32 32 31 36 40 59 83 100 100 90 61 48 44 50 57 64 81 75 76 77
36 31 27 28 29 27 26 26 26 30 32 35 37 39 40 42 47 50 48 45 44 46 51 55 60 66 66 65 69 68 78 82 82 75 70 65 70 73
53 51 47 42 38 34 30 30 31 33 34 35 33 35 40 42 45 56 64 65 65 64 64 64 74 77 74 71 69 70 68 69 77 79 79 81 78 74
69 69 61 60 60 55 49 44 40 36 37 38 37 38 37 37 37 40 41 41 47 48 52 65 72 80 83 85 84 82 77 75 73 72 70 67 63 63
83 74 77 73 66 62 58 56 50 44 42 41 42 43 44 43 42 41 39 38 36 37 38 42 38 37 32 31 37 38 41 44 47 47 47 49 49 50
79 83 79 76 79 76 71 65 61 61 57 47 40 38 40 40 34 30 29 27 23 24 28 32 30 33 29 24 21 17 15 15 14 15 17 18 20 23
79 83 80 76 80 84 81 73 67 64 64 65 60 56 44 40 32 26 25 22 22 22 22 21 20 19 20 19 15 14 14 13 14 13 12 12 11 11
88 92 91 83 83 82 75 77 80 75 69 65 68 62 49 39 36 30 26 24 23 22 20 20 18 16 14 14 14 10 10 9 8 8 9 9 8 8
93 92 88 98 96 89 87 86 83 80 71 63 61 56 50 51 46 42 36 31 27 22 20 17 16 13 11 10 10 10 8 7 6 6 6 6 6 6
97 99 92 100 92 100 100 88 88 88 84 74 65 49 47 45 45 38 25 23 20 18 16 14 11 10 10 9 8 7 8 7 7 7 6 6 6 6
100 88 93 100 93 97 99 95 93 86 85 78 79 74 56 51 43 30 26 24 18 15 13 11 10 9 8 8 8 8 7 6 5 6 5 5 5 5
100 94 100 100 98 100 96 99 95 90 82 70 72 76 73 70 52 32 26 23 18 14 11 9 8 8 9 9 7 6 7 8 7 6 6 6 6 6
94 100 100 99 99 95 94 93 95 94 88 70 65 57 46 58 53 30 26 23 16 13 10 9 8 8 9 7 8 7 8 8 8 7 6 6 6 6
100 100 100 100 100 97 97 91 84 86 92 81 53 51 46 46 42 28 24 19 14 11 10 10 9 9 6 7 8 8 8 8 8 8 8 8 8 7
100 98 98 100 100 93 89 84 77 77 75 81 54 49 46 40 41 26 22 16 13 10 9 10 10 8 6 6 7 6 6 7 8 8 8 8 8 8
100 88 100 100 96 95 91 78 81 82 52 42 34 35 36 36 36 24 19 14 11 10 10 10 10 8 6 7 6 6 5 6 8 9 9 9 9 9
100 74 91 91 81 98 88 64 87 82 60 32 32 32 28 36 34 23 15 12 10 10 10 11 10 7 6 7 7 6 6 6 6 7 8 9 9 9
100 70 87 85 78 94 68 47 60 58 44 29 29 24 25 35 28 20 14 11 10 10 11 11 9 7 6 6 6 6 6 6 6 7 7 8 8 9
Wind_Speed
33 32 33 36 41 46 49 56 59 67 75 83 88 94 97 96 96 95 95 96 100 102 98 100 98 96 95 92 88 91 84 86 80 83 86 88 88 81
29 27 28 29 32 37 42 48 53 58 66 72 77 83 84 91 93 95 94 93 96 98 98 102 100 97 96 95 89 84 79 77 83 82 80 78 76 71
25 23 21 22 26 30 35 40 46 50 55 59 61 67 71 79 83 83 86 88 89 91 92 91 90 89 88 86 87 86 85 86 85 80 77 68 63 59
23 21 20 17 17 20 25 31 36 41 46 50 54 58 63 68 72 77 79 81 88 90 88 84 82 85 84 88 92 93 88 90 85 76 67 62 57 56
27 23 19 17 18 17 18 20 24 29 33 37 41 46 52 56 61 66 67 72 76 78 81 85 85 83 90 90 92 99 92 82 74 67 63 59 60 59
31 29 26 24 21 19 18 18 19 21 22 24 27 30 33 39 45 51 57 62 63 65 66 71 76 84 93 91 80 75 70 66 65 64 61 62 61 59
33 32 30 29 29 27 25 23 23 22 21 21 22 23 25 28 31 34 38 41 44 47 52 55 56 57 59 60 61 63 65 65 65 66 65 66 67 65
35 33 33 32 31 31 29 28 27 26 27 28 29 31 33 35 36 37 39 41 43 46 50 52 54 57 59 61 63 66 67 66 68 69 70 71 70 70
38 38 38 36 35 33 33 33 33 33 32 31 33 35 38 39 41 44 46 47 49 52 55 59 62 65 67 69 72 74 75 76 76 77 78 78 79 79
40 40 39 39 39 40 39 38 38 36 36 36 37 39 41 43 45 48 51 53 54 57 60 66 68 71 72 73 75 77 79 80 82 84 85 87 87 86
41 42 42 42 44 45 44 43 43 42 42 43 43 44 44 46 48 50 53 56 59 60 63 68 72 75 80 82 82 81 80 81 81 82 84 85 87 88
47 46 46 47 46 46 46 48 49 49 48 48 49 50 48 49 51 52 53 56 59 61 63 68 72 73 79 86 84 83 84 84 85 85 85 85 85 84
51 51 52 51 51 52 52 52 52 53 53 52 53 54 54 53 53 55 56 58 62 64 66 70 75 76 76 78 90 86 85 84 82 82 83 83 82 80
56 57 55 55 55 56 56 55 56 57 57 57 57 57 58 59 59 59 61 62 65 67 69 70 74 76 76 78 80 85 83 80 77 77 76 74 73 75
61 60 59 60 58 59 60 59 60 61 61 62 61 60 61 61 62 63 64 65 66 67 70 72 73 75 75 76 77 75 75 70 65 66 65 64 63 62
67 65 64 65 63 63 62 62 62 63 64 65 65 65 64 65 67 67 68 69 68 68 68 69 70 72 72 68 65 63 61 64 61 60 60 58 57 56
71 69 68 69 68 68 67 65 64 66 66 67 67 68 68 68 70 71 71 73 71 70 69 68 66 64 61 58 59 56 55 55 54 52 51 50 51 50
71 72 72 71 71 71 70 68 67 68 69 71 70 71 71 71 72 71 72 74 72 68 67 68 65 56 50 51 53 49 46 45 44 43 42 41 42 42
79 76 75 75 76 74 72 71 70 70 72 73 73 73 74 73 72 72 74 73 69 66 65 64 58 50 47 44 42 44 40 40 38 38 38 37 37 36
86 77 76 76 76 76 74 72 72 72 73 73 74 74 74 73 74 74 74 73 68 64 63 59 52 47 43 39 36 35 34 33 34 34 33 32 32 31
83 78 77 77 77 75 76 75 73 74 73 73 74 75 75 74 74 74 72 69 65 63 60 54 46 44 40 37 36 34 31 30 31 31 31 30 28 27
85 79 78 77 76 75 75 74 73 74 74 75 75 75 74 74 73 72 69 66 63 62 57 49 44 41 38 37 37 35 32 31 31 30 28 27 24 22
88 81 77 76 75 73 74 74 74 74 73 74 74 74 72 71 72 69 68 64 61 59 52 46 42 40 38 37 36 36 33 32 31 29 27 27 26 23
Wind_Direction
287 276 270 267 262 256 253 252 252 252 251 253 253 254 255 256 258 260 262 261 262 267 269 269 271 271 271 271 273 275 277 279 281 280 278 278 279 281
304 291 279 273 265 260 257 256 255 254 254 255 256 256 256 256 257 258 261 261 263 264 265 268 270 272 274 278 281 282 280 282 284 281 281 279 278 278
316 310 299 287 278 271 265 261 259 258 256 257 259 260 260 260 261 263 262 263 264 265 268 270 272 273 274 277 280 279 280 283 282 282 281 279 276 273
332 324 318 307 297 287 278 270 266 264 261 260 259 257 258 262 264 264 264 264 264 265 267 271 274 276 277 276 278 278 281 282 280 279 278 274 273 269
340 337 336 323 311 303 293 285 278 272 267 265 263 261 261 261 262 263 266 267 268 269 269 270 272 272 271 276 278 278 277 274 272 268 269 268 270 267
345 342 341 335 329 321 312 304 293 282 275 271 267 265 267 268 269 269 268 269 270 270 270 268 270 269 269 272 273 272 271 270 270 269 269 267 264 263
348 346 344 341 339 335 329 324 316 306 296 288 282 280 279 278 280 279 279 278 277 275 273 271 270 269 268 270 272 273 271 270 269 270 268 270 266 265
347 346 343 339 336 333 330 328 324 319 313 308 304 301 296 291 286 284 281 279 279 277 277 277 276 276 275 274 274 274 274 272 270 268 267 269 267 265
341 339 337 335 334 332 330 326 322 319 315 311 307 304 299 294 290 287 286 285 284 282 281 279 276 274 275 275 274 274 274 274 273 273 272 271 269 268
336 334 332 330 330 328 326 323 321 317 313 309 305 302 300 297 295 293 291 289 288 285 283 282 280 278 277 275 273 273 272 272 272 272 273 273 273 272
330 328 325 323 323 322 322 320 318 316 313 310 306 302 299 298 296 295 294 293 292 290 287 285 284 282 281 281 280 280 279 277 276 275 273 272 272 271
327 325 324 322 319 317 317 315 313 313 311 309 307 306 303 300 298 296 294 294 293 291 290 286 285 284 283 284 283 282 282 281 280 279 278 277 276 275
326 327 325 322 318 317 314 313 313 312 310 309 307 307 305 302 300 300 299 298 298 296 293 290 289 288 286 285 286 287 286 286 285 283 280 278 276 273
321 322 324 323 320 316 314 312 309 309 310 310 310 309 308 305 303 302 301 301 300 298 296 293 291 291 290 289 286 287 287 286 285 282 280 276 273 271
316 316 319 319 319 318 315 313 312 309 308 308 308 308 309 308 307 306 305 305 303 301 298 296 296 294 293 291 289 289 289 288 285 283 281 279 276 273
315 315 316 315 315 316 315 312 309 308 308 307 307 308 309 308 307 307 307 307 305 302 300 299 298 296 295 293 291 290 289 287 286 283 282 280 278 276
309 312 314 313 312 312 313 311 308 308 307 306 307 307 308 308 308 307 308 309 308 305 304 303 301 299 297 295 292 291 290 288 287 284 282 281 278 276
309 309 311 310 309 308 310 311 309 306 305 305 307 307 309 309 309 310 309 309 308 307 307 307 304 301 297 295 294 293 292 290 288 286 283 281 279 277
309 305 305 307 307 306 306 307 307 306 304 306 308 306 307 310 310 310 310 309 309 309 309 308 304 302 300 294 293 293 296 295 292 288 285 283 281 278
308 304 302 304 304 304 304 304 306 306 306 306 306 305 307 309 310 309 310 310 310 311 311 308 304 302 299 295 293 294 297 298 295 291 288 284 282 279
305 301 299 300 301 302 302 303 304 303 306 306 305 305 306 308 309 309 311 311 312 312 312 307 304 302 298 295 294 293 295 296 294 290 287 285 281 277
303 297 295 298 300 299 301 304 303 303 304 305 305 304 306 307 308 309 311 312 312 312 310 306 304 301 297 295 293 293 294 295 293 290 289 287 282 279
299 295 295 295 297 298 300 303 302 301 302 304 303 304 305 307 308 310 311 313 312 312 309 305 303 300 296 296 293 292 291 293 291 289 287 282 278 276